EHI
30 33 38 28 10 6 8 4 1 1 0 0 0 0 0 0 0 1 1 2 5 7 4 1 0 0 0 0 0 0 0 0 2 3 2 0 0 0 0 0 0 0 0
49 55 56 38 14 5 9 7 2 1 1 0 0 0 0 0 0 0 0 1 5 8 6 2 0 0 0 0 0 0 0 0 1 2 1 0 0 0 0 0 0 0 0
66 76 77 56 30 20 18 11 4 1 1 0 0 0 1 2 1 0 0 1 3 6 5 2 1 1 0 0 0 0 0 0 0 1 0 0 0 0 0 0 0 0 0
69 80 83 70 59 55 38 17 6 3 1 0 0 1 3 4 2 0 0 0 2 5 5 4 4 2 1 0 0 0 0 0 0 0 0 0 0 0 0 0 0 0 0
67 74 76 74 78 82 63 34 19 13 5 1 1 2 4 6 4 1 0 0 4 8 7 4 4 3 1 0 0 0 0 0 0 0 0 0 0 0 0 0 0 0 0
64 66 67 69 74 79 72 53 37 25 12 5 2 1 2 7 11 8 2 1 4 8 5 2 2 1 1 0 0 0 0 0 0 0 0 0 0 0 0 0 0 0 0
46 52 59 62 56 54 56 52 39 25 16 9 2 0 0 8 17 13 4 1 2 3 2 0 0 0 0 0 0 1 1 0 0 0 0 0 0 0 0 0 0 0 0
20 30 51 58 43 31 34 34 24 17 13 6 1 0 0 5 12 8 2 2 3 2 1 0 0 2 2 1 0 1 1 1 0 0 0 0 0 0 0 0 0 0 0
14 19 38 51 41 31 29 23 14 8 5 2 0 0 0 2 3 2 0 5 11 10 3 0 0 2 4 3 1 1 1 1 0 0 0 0 0 0 0 0 0 0 0
24 19 23 38 47 47 42 27 11 5 2 0 0 0 0 0 0 0 0 6 16 14 5 0 0 1 2 2 1 0 0 0 0 0 0 0 0 0 0 0 0 0 0
26 16 10 21 38 48 44 29 14 7 3 0 0 0 0 0 0 0 0 3 8 7 2 1 0 0 0 0 0 0 0 0 0 0 0 0 0 0 0 0 0 0 0
15 8 3 7 15 24 25 19 14 9 4 1 0 0 0 0 0 0 0 0 0 0 1 2 1 1 1 1 0 0 0 0 0 0 0 0 0 0 0 0 0 0 0
4 2 1 1 1 4 5 7 9 9 5 2 0 0 0 0 0 0 0 0 0 0 2 3 3 2 2 2 1 0 0 0 0 0 0 0 0 0 0 0 0 0 0
0 0 0 0 0 0 0 1 4 5 4 2 0 0 0 0 0 0 0 0 0 0 1 2 2 2 3 2 1 0 0 0 0 0 0 0 0 0 0 0 0 0 0
0 0 0 0 0 0 0 0 1 2 1 1 0 0 0 0 0 0 0 0 0 0 0 0 0 2 4 3 0 0 0 0 0 0 0 0 0 0 0 0 0 0 0
0 0 0 0 0 0 0 0 0 0 0 0 0 0 0 0 0 0 0 0 0 0 0 0 0 1 2 1 0 0 0 0 0 0 0 0 0 0 0 0 0 0 0
0 0 0 0 0 0 0 0 0 0 0 0 0 0 0 0 0 0 0 0 0 0 0 0 0 0 0 0 0 0 0 0 0 0 0 0 0 0 0 0 0 0 0
0 0 0 0 0 0 0 0 0 0 0 0 0 0 0 0 0 0 0 0 0 0 0 0 0 0 0 0 0 0 0 0 0 0 0 0 0 0 0 0 0 0 0
0 0 0 0 0 0 0 0 0 0 0 0 0 0 0 0 0 0 0 0 0 0 0 0 0 0 0 0 0 0 0 0 0 0 0 0 0 0 0 0 0 0 0
0 0 0 0 0 0 0 0 0 0 0 0 0 0 0 0 0 0 0 0 0 0 0 0 0 0 0 0 0 0 0 0 0 0 0 0 0 0 0 0 0 0 0
0 0 0 0 0 0 0 0 0 0 0 0 0 0 0 0 0 0 0 0 0 0 0 0 0 0 0 0 0 0 0 0 0 0 0 0 0 0 0 0 0 0 0
0 0 0 0 0 0 0 0 0 0 0 0 0 0 0 0 0 0 0 0 0 0 0 0 0 0 0 0 0 0 0 0 0 0 0 0 0 0 0 0 0 0 0
0 0 0 0 0 0 0 0 0 0 0 0 0 0 0 0 0 0 0 0 0 0 0 0 0 0 0 0 0 0 0 0 0 0 0 0 0 0 0 0 0 0 0
0 0 0 0 0 0 0 0 0 0 0 0 0 0 0 0 0 0 0 0 0 0 0 0 0 0 0 0 0 0 0 0 0 0 0 0 0 0 0 0 0 0 0
0 0 0 0 0 0 0 0 0 0 0 0 0 0 0 0 0 0 0 0 0 0 0 0 0 0 0 0 0 0 0 0 0 0 0 0 0 0 0 0 0 0 0
0 0 0 0 0 0 0 0 0 0 0 0 0 0 0 0 0 0 0 0 0 0 0 0 0 0 0 0 0 0 0 0 0 0 0 0 0 0 0 0 0 0 0
Wind_Speed
3 2 0 1 4 3 5 4 4 4 5 3 4 5 4 4 4 3 1 6 10 11 12 12 13 13 13 12 12 13 15 17 18 19 20 20 19 18 17 16 15 13 12
3 3 3 3 3 4 4 4 3 1 2 3 5 5 4 5 4 4 4 6 12 13 13 13 14 14 15 14 13 13 14 15 17 19 21 21 20 20 19 18 16 15 13
5 5 4 4 4 5 3 3 3 2 4 5 6 7 5 5 5 6 5 4 5 11 14 14 14 14 15 16 16 15 15 15 15 19 22 22 21 20 20 19 18 16 15
6 5 4 5 4 3 2 3 3 3 5 5 5 6 5 4 6 6 5 5 4 4 9 16 16 15 16 17 17 17 15 14 15 18 22 23 23 22 22 21 20 18 17
6 5 4 4 4 3 4 5 4 4 4 4 6 4 4 4 6 7 6 6 4 3 4 8 13 15 16 17 17 17 15 13 11 15 22 25 26 24 23 23 21 19 17
5 5 5 5 5 4 4 4 4 4 3 3 5 3 4 6 6 6 6 5 5 6 5 4 4 8 12 14 14 14 14 13 11 12 18 24 27 26 25 24 23 20 18
7 6 6 6 6 6 6 5 5 5 4 3 2 3 5 8 7 4 4 4 5 5 3 4 4 2 2 7 10 13 15 13 12 11 14 21 26 26 26 26 24 21 19
8 10 8 7 7 7 6 5 5 4 3 4 3 3 4 3 1 4 5 5 5 4 5 7 6 5 4 3 5 8 11 11 12 11 11 17 23 25 26 26 25 23 21
9 9 9 7 8 6 4 4 4 5 4 4 4 3 3 1 1 4 6 5 5 3 4 4 3 5 5 4 2 2 4 7 9 10 9 13 19 22 25 28 27 25 23
8 9 9 8 7 6 4 4 4 4 5 5 4 4 4 3 3 3 3 4 4 4 5 3 4 4 3 1 2 4 3 6 8 11 12 12 16 22 28 28 27 25 23
7 7 8 7 6 5 5 5 3 4 3 4 4 3 4 4 5 4 3 2 1 3 5 5 4 2 2 2 1 2 2 5 7 9 11 12 18 26 29 28 27 26 24
4 5 5 5 5 4 4 3 2 2 2 3 4 4 4 4 3 4 4 4 4 5 5 3 2 2 1 1 4 3 3 3 3 0 7 16 24 29 28 28 28 25 22
4 4 2 1 1 1 0 1 1 1 0 1 4 5 5 5 4 5 5 5 5 3 2 1 1 1 1 3 4 3 2 4 6 9 14 20 25 26 27 27 27 24 22
5 6 5 4 4 4 3 2 1 1 1 1 5 8 5 5 5 5 3 3 4 3 2 3 2 1 2 4 3 1 4 8 10 13 16 18 21 22 23 23 21 19 18
4 6 6 6 5 5 4 3 2 2 2 2 5 7 5 4 5 4 1 0 2 2 3 3 2 2 2 4 4 3 4 8 12 13 14 15 17 18 17 16 15 14 13
5 5 6 6 6 5 5 4 4 5 5 4 6 6 5 4 4 3 2 2 3 3 3 2 2 1 2 5 5 5 5 9 11 12 11 11 12 13 13 13 13 12 12
3 3 3 3 3 3 3 3 3 4 4 5 4 4 5 5 3 3 3 3 3 3 5 5 3 2 2 4 5 5 6 5 7 11 11 11 11 11 12 12 12 12 11
1 0 0 1 1 1 1 2 3 4 3 4 4 6 7 6 6 4 4 4 4 4 4 6 5 3 4 5 6 6 6 7 7 12 13 13 13 13 13 13 13 12 12
3 2 2 2 2 2 2 2 2 3 3 3 4 5 6 7 7 6 5 4 4 4 4 4 5 2 2 4 5 4 4 3 5 10 14 14 15 15 15 14 14 13 13
4 5 5 5 5 7 8 8 7 4 3 4 6 5 5 6 6 7 6 6 5 4 4 4 4 2 2 4 4 3 2 1 1 1 4 8 12 15 15 15 15 15 15
5 5 6 7 7 7 9 10 8 6 6 5 5 5 5 5 5 5 5 6 7 6 5 4 3 2 1 3 3 3 2 0 1 1 1 3 5 6 8 12 15 16 15
4 4 6 7 8 8 11 13 11 5 5 5 4 3 4 7 8 7 4 6 8 6 6 5 4 4 5 3 2 2 2 1 0 2 2 2 2 2 4 5 10 14 14
7 6 6 7 6 9 13 15 14 5 7 7 7 6 7 8 10 9 5 1 3 7 7 5 6 6 5 4 2 2 2 2 1 2 2 1 2 3 2 4 4 2 5
6 6 5 6 6 9 13 13 13 6 8 8 8 8 7 8 11 11 5 5 5 5 6 5 5 4 4 3 3 1 2 2 1 0 1 1 0 1 1 2 1 1 3
6 5 5 6 6 8 12 13 12 4 5 6 7 8 8 9 14 16 10 7 5 3 2 4 4 3 2 2 2 1 1 0 0 1 0 1 1 1 3 3 2 3 4
4 4 6 7 8 9 13 16 14 4 3 3 4 7 12 11 13 14 8 7 7 7 8 4 2 4 4 2 0 2 2 2 1 0 1 0 0 0 1 3 5 4 4
Wind_Direction
203 216 200 192 242 213 195 226 259 228 203 224 253 252 252 275 275 281 182 197 210 218 231 244 251 256 257 258 258 258 255 250 236 219 208 205 203 197 194 195 195 187 181
204 175 189 209 246 255 206 192 247 250 220 244 251 249 235 245 253 250 241 227 225 227 234 241 246 252 258 262 265 267 264 255 241 221 211 208 206 200 196 194 192 189 184
215 198 196 205 229 243 227 214 245 241 239 237 232 235 223 218 234 237 240 239 226 223 229 237 240 243 250 258 264 267 264 257 242 221 211 207 205 200 197 193 189 187 184
225 207 204 218 215 225 224 227 227 230 243 252 250 227 207 208 227 229 231 232 226 224 223 234 241 243 250 259 268 271 269 261 244 224 212 207 205 200 196 192 188 183 181
233 231 226 229 217 208 198 229 214 216 239 256 256 220 200 216 222 220 221 235 228 215 226 233 229 236 246 259 269 271 272 269 254 232 216 210 206 201 195 191 187 179 179
259 254 252 237 240 232 205 216 230 222 232 250 274 284 234 220 214 214 214 222 215 216 226 232 214 235 239 251 257 260 264 263 256 244 224 214 210 203 195 190 182 173 177
278 268 265 255 238 243 230 217 219 229 225 219 249 281 267 240 213 204 211 231 215 206 208 233 233 232 263 266 257 252 254 257 256 246 234 218 212 204 195 187 170 165 180
269 270 252 244 238 241 237 226 223 232 239 218 221 248 276 282 198 209 210 209 220 201 211 227 213 205 221 253 269 263 256 270 273 259 240 220 212 203 193 174 160 170 184
245 251 260 249 243 243 238 227 224 232 243 245 230 229 256 268 254 241 225 218 198 197 233 239 235 229 213 229 268 302 267 278 282 272 254 227 208 195 179 162 163 175 187
272 254 255 250 238 228 218 215 217 216 236 253 257 236 236 247 246 287 246 227 197 210 239 252 254 265 248 227 256 257 251 275 279 271 256 232 199 177 163 163 167 180 189
275 266 258 252 236 221 213 205 213 208 210 234 248 252 250 248 238 242 269 285 274 254 239 231 224 230 259 276 279 58 306 301 290 273 244 209 174 162 161 162 170 183 191
298 284 269 250 238 228 220 201 178 180 187 236 256 253 245 245 243 237 249 263 261 255 234 211 220 224 255 3 43 26 337 333 334 128 159 153 151 155 159 164 174 185 192
339 338 329 322 261 227 57 63 83 85 227 283 280 268 255 247 249 246 239 248 260 271 293 269 233 201 96 74 69 9 59 90 97 109 126 138 147 155 161 170 179 189 195
353 2 19 39 54 53 39 23 30 359 293 281 280 272 261 257 262 265 259 255 261 259 244 248 257 187 109 91 84 39 103 114 117 122 131 141 151 158 166 174 184 195 198
5 16 22 31 45 46 37 21 356 322 327 329 281 273 265 268 271 276 287 237 234 264 268 237 234 212 120 99 129 109 118 129 134 139 145 152 158 162 168 179 189 193 194
26 36 33 28 30 30 24 15 352 343 336 288 266 268 275 276 289 293 280 247 221 230 262 257 233 278 126 129 135 127 125 137 147 153 159 164 169 169 173 182 190 195 200
32 33 37 24 16 14 6 355 333 306 271 267 293 323 331 326 328 327 316 290 254 226 250 270 248 235 158 140 149 146 147 157 158 162 166 173 181 184 186 192 199 205 209
78 103 25 313 300 292 286 307 316 323 329 349 7 9 360 355 354 341 323 299 276 243 240 269 278 234 193 166 168 172 167 176 169 177 182 189 195 200 203 204 207 212 217
355 1 342 333 335 340 346 345 319 308 319 350 31 35 22 13 6 353 335 327 303 290 259 260 274 251 188 171 174 191 199 178 177 180 194 203 207 209 211 211 211 215 220
26 25 17 10 14 36 30 18 2 356 12 40 60 58 41 32 11 352 359 359 347 344 323 287 275 260 199 173 168 182 211 246 235 135 198 215 215 215 219 215 213 215 220
46 36 40 35 29 47 28 13 354 21 38 54 70 67 56 40 20 7 14 7 8 12 360 337 310 300 240 159 169 161 173 293 326 60 21 251 209 211 219 222 220 219 219
52 52 60 56 41 39 16 16 10 25 37 47 70 82 75 35 6 357 4 29 25 20 9 6 8 22 30 41 73 100 128 135 268 30 64 318 310 241 229 219 219 214 217
38 37 61 74 61 36 21 13 3 20 50 41 42 39 40 32 13 351 333 211 46 45 36 34 41 34 35 27 53 85 88 95 92 8 41 359 1 328 20 48 55 144 190
47 45 56 75 69 46 24 13 356 69 64 53 43 35 36 26 10 354 21 78 72 41 32 49 55 53 45 27 34 67 111 125 141 176 100 118 52 269 132 94 114 191 204
45 47 54 56 53 40 21 15 359 115 108 95 77 53 37 30 12 10 18 24 33 37 61 77 83 97 99 59 10 25 95 74 102 131 70 160 133 177 191 174 174 223 230
43 48 57 52 46 35 21 20 12 25 69 110 117 89 53 33 18 13 10 13 10 348 337 313 216 207 204 194 58 27 27 16 0 48 95 37 84 138 227 173 164 188 207